Find Starlink 5098

NORAD ID: 54013 Int'l Des: 2022-125 Owner: SPXS Country: US Constellation: starlink operational
LEOCIRCULAR

現在のビュー

3D地球を読み込み中...

Starlink 5098について

説明を読み込み中...

次回通過

Passes for default location (London). Set your location on the main map for personalized predictions.

高度履歴

Loading altitude history...

軌道要素

1 54013U 22125BB 26150.09935213 -.00000528 00000-0 -15119-4 0 9999
2 54013 53.1968 198.6076 0001247 92.2249 267.8886 15.08831690201892
Epoch: May 30, 2026 • Age: 9 hours

現在のステータス

高度 555.7 km
速度 7.58 km/s
衛星直下点 -44.89°S, 86.28°E
打ち上げ日 Oct 5, 2022
運用期間 3.6 years
タイプ internet

技術仕様

分類 Payload
質量 305.00 kg
乾燥質量 290.00 kg
総質量 305.00 kg
長さ 0.20 m
直径 2.80 m
スパン 9.00 m
形状 Box + pan
製造者 SPXS
バスタイプ Starlink
フェーズステータス In Orbit
所有者/国 SPXS/US

Most Searched